STARLINK-35468, 66118

Orbit data source: Space-Track

STARLINK-35468, 66118 is a payload satellite owned by SpaceX/Seattle (US) in LEO that was launched on Wed, 22 Oct 2025 UTC via an FALCON 9 launch vehicle from the Air Force Western Test Range (AFWTR). Payload-class satellites include a variety of spacecraft equipped with specific instruments for various scientific and technological missions. These include communications satellites like Starlink; space stations such as the ISS; scientific satellites like the Hubble; Earth observation satellites from companies like Planet Labs, Umbra, and HawkEye 360; GPS; miniature CubeSats for education and research; and military/defense satellites.

Loading next visibility...
Identifier
66118, 2025-237E
Orbit
LEO
Country
Flag of USUS
Related business
Manufacturer
SpaceX/Seattle
Mission
Operational spacecraft
Bus & Motor
STARLINK V2MO, Unknown motor
Mass
575 kg wet, ~530 kg dry
Launch date (UTC)
2025-10-22 (2 weeks ago)
Launch vehicle
FALCON 9
Launch site
Air Force Western Test Range (AFWTR)
Object type
Payload
Rocket body
Debris
Shape & HBR
Unknown shape, 17.7 m
Radar Cross Section
RCS unknown

Expand to show TLE details & history
Last TLE update: 6 hours ago

TLE from 6 hours ago
0 STARLINK-35468
1 66118U 25237E   25312.16668980 -.01836098  00000-0 -16948-1 0  9994
2 66118  53.1593 251.4348 0001066  93.0632 187.0380 15.70304177  3929
Epoch: 2025-11-08T04:00Z
TLE epoch observation values (Epoch: 2025-11-08T04:00:01.998Z)
Latitude
-52.1515°
Longitude
70.33348°
Altitude
376.816 km
Speed
7.683 km/s
True Right ascension
11h 51m 46s
True Declination
-51° 58' 31"
Sunlit
Object was in daylight at epoch
Visualization orbit readout
Latitude
Unknown
Longitude
Unknown
Altitude
Unknown
Speed
Unknown
Apparent Right ascension
Unknown
Apparent Declination
Unknown
Sunlit
N/A
Visualization observer readout
Local Sidereal Time
06:32:45
Azimuth
Unknown
Elevation
Unknown
Doppler factor
Unknown
Orbital elements
Apogee altitude
359.006 km
Perigee altitude
357.57 km
Semi-major axis
6,736.425 km
Eccentricity
0.00011
Inclination
53.1593°
RAAN
251.4348°
Arg. of periapsis
93.0632°
True anomaly
187.0365°
Mean anomaly
187.038°
Eccentric anomaly
187.03725°
Mean motion
3.92554 °/min
Orbital period
91.71 mins
BSTAR
-0.016948
Loading maneuver chart data...
Computing Atmospheric mass density...
Loading historical data...
Loading historical data...
Loading historical data...
Loading historical data...
Loading historical data...
Loading historical data...
Loading historical data...

Documentation

Showing up to 5 results
|